Location: Piotrkow Trybunalski
(51.4000°N, 19.6830°E)
Time: 00:44:56
(UTC+01:00)

A-11 Canister half - Pass Details

Date: 19 December 2023
Orbit: 1512 x 1687 km, 47.2° (Epoch: 23 February)

Event Time Altitude Azimuth Distance (km) Brightness Sun altitude
Exits shadow 04:05:47 10° 198° (SSW) 3,887 10.9 -32.3°
Drops below altitude 10° 04:05:53 10° 198° (SSW) 3,904 10.9 -32.3°
Sets 04:10:39 0° 179° (S) 4,915 11.7 -31.6°
